[[{"header":{"parameterUnit":"m.s-1","parameterCategory":1,"la1":30.2991,"la2":30.254,"lo1":-89.0895,"lo2":-89.0444,"dy":0.0017,"dx":0.0017,"nx":28,"ny":28,"refTime":"2024-03-11T09:00:00:Z","depth":0,"parameterNumber":2,"parameterNumberName":"U-component_of_WINDS"},"data":[0,0,0,0,0,0,0,0,0,0,0,0,0,0,0,0,0,0,0,0,0,0,0,0,0,0,0,0,0,0,0,0,0,0,0,0,0,0,0,0,0,0,0,0,0,0,0,0,0,0,0,0,0,0,0,0,0,0,-2.2717,-2.2717,0,-2.2699,-2.2699,-2.2699,-2.262,-2.2619,-2.2617,-2.2615,-2.2599,-2.26,-2.2601,0,0,0,0,0,0,0,0,0,0,0,0,0,-2.2688,-2.2689,-2.2717,-2.2717,-2.2717,-2.2699,-2.2699,-2.2698,-2.2621,-2.2619,-2.2616,-2.2614,-2.2598,-2.26,-2.2601,0,0,0,0,0,0,0,0,0,0,0,0,0,-2.2689,-2.269,-2.2717,-2.2676,-2.2672,-2.2699,-2.2699,-2.2698,-2.2621,-2.2619,-2.2616,-2.2613,-2.2598,-2.2599,-2.2601,-2.2668,0,0,-2.2607,-2.2608,0,0,0,0,0,0,0,0,-2.2689,-2.269,-2.2682,-2.2679,-2.2675,-2.2659,-2.2682,-2.2688,-2.2622,-2.2641,-2.2615,-2.2612,-2.2621,-2.2621,-2.2623,-2.2667,-2.2666,-2.2607,-2.2608,-2.2609,-2.261,0,0,0,0,0,0,0,-2.2689,-2.269,-2.271,-2.2682,-2.2678,-2.2659,-2.2656,-2.2683,-2.2646,-2.2639,-2.2633,-2.2632,-2.2618,-2.2622,-2.2623,-2.2666,-2.2607,-2.2609,-2.261,-2.2611,-2.2764,-2.2767,0,0,0,0,0,0,-2.2694,-2.2691,-2.2711,-2.271,-2.2675,-2.2662,-2.2659,-2.2667,-2.2646,-2.264,-2.2634,-2.2628,-2.262,-2.262,-2.2622,-2.2698,-2.2609,-2.2611,-2.2612,-2.2761,-2.2765,-2.2768,0,0,0,0,0,0,-2.2694,-2.2697,-2.2711,-2.2699,-2.2699,-2.2665,-2.2675,-2.2668,-2.2671,-2.2642,-2.2636,-2.2644,-2.2618,-2.2619,-2.2657,-2.2696,-2.2612,-2.2613,-2.2758,-2.2762,-2.2766,-2.2852,0,0,0,0,0,0,-2.2693,-2.2697,-2.2721,-2.27,-2.27,-2.2746,-2.2678,-2.267,-2.2674,-2.2666,-2.265,-2.2645,-2.2616,-2.2654,-2.2659,-2.2697,-2.2615,-2.2754,-2.276,-2.2765,-2.2845,-2.2858,-2.287,0,0,0,0,0,-2.2693,-2.2746,-2.2723,-2.2725,-2.2729,-2.2749,-2.2749,-2.2714,-2.2678,-2.2702,-2.2684,-2.2645,-2.2692,-2.2659,-2.2663,-2.2703,-2.2751,-2.2758,-2.2764,-2.284,-2.2856,-2.2869,0,0,0,0,0,0,-2.2773,-2.2742,-2.2716,-2.2764,-2.276,-2.2735,-2.2765,-2.2732,-2.2738,-2.273,-2.2688,-2.2685,-2.2729,-2.272,-2.2684,-2.2767,-2.2715,-2.2723,-2.2771,-2.2786,-2.2798,-2.2799,-2.2617,0,0,0,0,0,-2.2796,-2.2814,-2.2787,-2.2831,-2.2831,-2.2799,-2.2806,-2.2779,-2.2773,-2.2771,-2.2755,-2.2752,-2.2765,-2.2775,-2.2786,-2.2844,-2.284,-2.2874,-2.2886,-2.2896,-2.2903,-2.2934,-2.2949,-2.279,-2.279,-2.2789,0,0,-2.2845,-2.283,-2.2844,-2.2847,-2.2841,-2.2861,-2.2797,-2.2821,-2.2836,-2.2775,-2.2809,-2.2798,-2.2791,-2.284,-2.286,-2.2833,-2.2947,-2.2905,-2.2913,-2.2914,-2.2943,-2.2958,-2.2971,-2.2794,-2.2793,-2.2793,0,0,-2.2942,-2.2933,-2.297,-2.2965,-2.2956,-2.2934,-2.2943,-2.2925,-2.2915,-2.2949,-2.2904,-2.2922,-2.2946,-2.2943,-2.2945,-2.3045,-2.3009,-2.305,-2.3114,-2.3144,-2.3157,-2.3168,-2.3204,-2.3217,-2.3057,-2.3057,-2.3057,0,-2.3004,-2.3031,-2.2993,-2.302,-2.3023,-2.2969,-2.3007,-2.3004,-2.2999,-2.3003,-2.2974,-2.3004,-2.2996,-2.3043,-2.3067,-2.3071,-2.3081,-2.3051,-2.3158,-2.3169,-2.3178,-2.3212,-2.3226,-2.3062,-2.3062,-2.3061,-2.3061,0,-2.3107,-2.3127,-2.3158,-2.3154,-2.3162,-2.3194,-2.3162,-2.3174,-2.3148,-2.313,-2.3166,-2.3155,-2.3163,-2.3173,-2.3147,-2.3217,-2.3201,-2.3166,-2.3112,-2.3199,-2.323,-2.3243,-2.3069,-2.3067,-2.3066,-2.3065,0,0,-2.3253,-2.3229,-2.3241,-2.3239,-2.3226,-2.3242,-2.3273,-2.328,-2.3292,-2.3291,-2.3316,-2.3339,-2.3307,-2.3309,-2.3284,-2.3311,-2.3391,-2.3272,-2.3271,-2.3294,-2.3468,-2.3494,-2.3509,-2.3368,-2.337,-2.3372,-2.3468,0,-2.3346,-2.3395,-2.3363,-2.3418,-2.3437,-2.3387,-2.3414,-2.341,-2.3395,-2.341,-2.3394,-2.341,-2.3366,-2.3368,-2.3392,-2.3376,-2.3425,-2.3369,-2.3392,-2.3393,-2.3394,-2.3525,-2.3553,-2.3644,-2.348,-2.3482,-2.3484,0,-2.346,-2.3465,-2.3522,-2.3507,-2.3513,-2.3538,-2.3543,-2.3557,-2.3552,-2.354,-2.3544,-2.3512,-2.3542,-2.3491,-2.3533,-2.3495,-2.3503,-2.3497,-2.35,-2.35,-2.3443,-2.3529,-2.3672,-2.3685,-2.3502,-2.3501,-2.3499,0,-2.3561,-2.3581,-2.3618,-2.3619,-2.3601,-2.362,-2.3614,-2.3606,-2.3614,-2.3619,-2.3623,-2.3633,-2.3638,-2.3646,-2.3618,-2.3583,-2.3664,-2.361,-2.3655,-2.3656,-2.3673,-2.3672,-2.3819,-2.368,-2.368,-2.3679,-2.3679,0,-2.3668,-2.3705,-2.3663,-2.3686,-2.3727,-2.369,-2.3732,-2.3721,-2.3715,-2.3735,-2.3694,-2.3714,-2.3676,-2.3694,-2.3672,-2.3711,-2.3713,-2.3705,-2.3698,-2.3708,-2.3709,-2.3711,-2.3704,-2.3683,-2.3682,-2.3681,-2.3681,0,-2.3786,-2.376,-2.3797,-2.3778,-2.3775,-2.3805,-2.379,-2.3811,-2.3794,-2.3821,-2.3825,-2.3799,-2.3817,-2.379,-2.3806,-2.3791,-2.3844,-2.3829,-2.3846,-2.3841,-2.3887,-2.3883,-2.404,-2.4059,-2.3908,-2.391,-2.3911,0,-2.3855,-2.3882,-2.3867,-2.3878,-2.3874,-2.3892,-2.3899,-2.3865,-2.3875,-2.3872,-2.3894,-2.3909,-2.3919,-2.3951,-2.3933,-2.3946,-2.393,-2.3984,-2.3931,-2.394,-2.393,-2.3929,-2.3932,-2.3995,-2.3996,-2.3998,-2.3999,0,-2.3981,-2.3967,-2.3979,-2.3987,-2.3997,-2.4001,-2.4003,-2.4015,-2.3979,-2.3993,-2.4011,-2.4018,-2.4035,-2.405,-2.4058,-2.4053,-2.4021,-2.4016,-2.4027,-2.4036,-2.4045,-2.4041,-2.3875,-2.4012,-2.4011,-2.401,-2.4009,-2.4009,-2.4076,-2.4099,-2.4092,-2.4107,-2.4105,-2.4108,-2.4127,-2.4113,-2.4127,-2.4137,-2.4117,-2.414,-2.4136,-2.4144,-2.4143,-2.4161,-2.4138,-2.4154,-2.4157,-2.4162,-2.4169,-2.4043,-2.4163,-2.4162,-2.4162,-2.4162,-2.4161,0,-2.4199,-2.4193,-2.4207,-2.4211,-2.4224,-2.4192,-2.4193,-2.4206,-2.4227,-2.4226,-2.4237,-2.4258,-2.4274,-2.4259,-2.4272,-2.429,-2.4275,-2.4294,-2.4292,-2.4291,-2.4189,-2.4178,-2.4305,-2.4305,-2.4305,-2.4305,-2.4305,-2.4305,-2.4265,-2.4301,-2.4287,-2.4323,-2.4316,-2.4338,-2.4342,-2.4345,-2.4344,-2.437,-2.4382,-2.4372,-2.4366,-2.4379,-2.4392,-2.4387,-2.4394,-2.4418,-2.4408,-2.4313,-2.4299,-2.4285,-2.4274,-2.442,-2.442,-2.4509,-2.451,-2.451]},{"header":{"parameterUnit":"m.s-1","parameterCategory":1,"la1":30.2991,"la2":30.254,"lo1":-89.0895,"lo2":-89.0444,"dy":0.0017,"dx":0.0017,"nx":28,"ny":28,"refTime":"2024-03-11T09:00:00:Z","depth":0,"parameterNumber":3,"parameterNumberName":"V-component_of_WINDS"},"data":[0,0,0,0,0,0,0,0,0,0,0,0,0,0,0,0,0,0,0,0,0,0,0,0,0,0,0,0,0,0,0,0,0,0,0,0,0,0,0,0,0,0,0,0,0,0,0,0,0,0,0,0,0,0,0,0,0,0,1.1496,1.1496,0,1.1475,1.1475,1.1474,1.1503,1.1504,1.1505,1.1506,1.1481,1.1479,1.1478,0,0,0,0,0,0,0,0,0,0,0,0,0,1.1559,1.1558,1.1496,1.1496,1.1495,1.1475,1.1474,1.1474,1.1503,1.1504,1.1505,1.1506,1.1481,1.1479,1.1477,0,0,0,0,0,0,0,0,0,0,0,0,0,1.1534,1.1557,1.1496,1.1507,1.1508,1.1475,1.1474,1.1474,1.1502,1.1504,1.1506,1.1507,1.1482,1.148,1.1477,1.1431,0,0,1.147,1.1469,0,0,0,0,0,0,0,0,1.1535,1.1532,1.1506,1.1506,1.1507,1.1493,1.1488,1.1459,1.1502,1.1504,1.1506,1.1508,1.1483,1.1481,1.1473,1.143,1.1429,1.1469,1.1468,1.1467,1.1466,0,0,0,0,0,0,0,1.1537,1.1533,1.1487,1.1505,1.1506,1.1513,1.1511,1.1482,1.1485,1.1504,1.1506,1.1504,1.1484,1.1476,1.1473,1.1428,1.1469,1.1467,1.1466,1.1465,1.1346,1.1344,0,0,0,0,0,0,1.1538,1.1534,1.1488,1.1487,1.1526,1.151,1.1508,1.1496,1.1486,1.1486,1.1502,1.1505,1.1479,1.1476,1.1472,1.1417,1.1467,1.1465,1.1463,1.1347,1.1345,1.1343,0,0,0,0,0,0,1.1539,1.1533,1.1489,1.1511,1.1506,1.1508,1.1494,1.1495,1.1487,1.1484,1.1485,1.1493,1.148,1.1476,1.1441,1.1417,1.1463,1.1461,1.1349,1.1347,1.1344,1.1306,0,0,0,0,0,0,1.1541,1.1534,1.1516,1.151,1.1505,1.1459,1.1492,1.1493,1.1483,1.1486,1.1476,1.1476,1.1481,1.1445,1.1439,1.1414,1.1459,1.1351,1.1348,1.1345,1.131,1.1303,1.1297,0,0,0,0,0,1.1543,1.1506,1.1515,1.151,1.1483,1.1457,1.1454,1.1462,1.1481,1.1463,1.1462,1.1476,1.1421,1.1441,1.1434,1.1409,1.1353,1.1349,1.1345,1.1313,1.1304,1.1297,0,0,0,0,0,0,1.1507,1.1505,1.1516,1.1476,1.1467,1.1462,1.144,1.1452,1.1437,1.144,1.145,1.1448,1.1411,1.1407,1.1429,1.1363,1.139,1.1385,1.1367,1.1359,1.1353,1.1354,1.1457,0,0,0,0,0,1.1495,1.1475,1.1474,1.1439,1.1434,1.1438,1.1427,1.1434,1.1424,1.142,1.1417,1.1406,1.1386,1.1373,1.1354,1.131,1.1308,1.1289,1.1283,1.1278,1.1272,1.1248,1.124,1.1331,1.1331,1.1331,0,0,1.1469,1.1465,1.1452,1.1432,1.1425,1.1404,1.1434,1.141,1.1394,1.1416,1.1383,1.1381,1.1369,1.133,1.1312,1.1325,1.1247,1.1273,1.1268,1.1266,1.1243,1.1235,1.1227,1.1328,1.1329,1.1329,0,0,1.141,1.1406,1.1376,1.137,1.1361,1.1364,1.1357,1.1351,1.135,1.1318,1.1334,1.1315,1.1281,1.1272,1.1263,1.1203,1.1216,1.1197,1.1163,1.1139,1.1132,1.1126,1.1103,1.1095,1.1192,1.1192,1.1192,0,1.1378,1.1347,1.1359,1.1333,1.1324,1.1346,1.1315,1.1308,1.1293,1.1285,1.1301,1.1259,1.1253,1.1212,1.1197,1.119,1.1181,1.1197,1.1132,1.1126,1.112,1.1099,1.1091,1.119,1.119,1.1191,1.1191,0,1.1308,1.1286,1.1263,1.1249,1.1238,1.121,1.1217,1.1203,1.1212,1.1213,1.118,1.1174,1.1155,1.1147,1.1154,1.1106,1.1115,1.1131,1.1157,1.1109,1.1089,1.1081,1.1187,1.1188,1.1188,1.1189,0,0,1.1223,1.1218,1.1209,1.1204,1.1196,1.1179,1.1153,1.1135,1.1123,1.1113,1.109,1.1062,1.1077,1.1067,1.1074,1.1054,1.1006,1.1073,1.1073,1.106,1.0952,1.0939,1.0929,1.1016,1.1014,1.1013,1.0953,0,1.1164,1.1119,1.1129,1.1084,1.1064,1.1085,1.1062,1.1055,1.1056,1.1038,1.1039,1.1019,1.1041,1.1036,1.1017,1.1016,1.0984,1.1021,1.0993,1.0992,1.0993,1.0919,1.0904,1.0848,1.0945,1.0944,1.0943,0,1.1088,1.1076,1.1029,1.1025,1.1017,1.0996,1.0982,1.0965,1.0957,1.096,1.0949,1.0961,1.0934,1.0963,1.0925,1.095,1.094,1.0938,1.0936,1.0932,1.0963,1.0912,1.083,1.0821,1.0931,1.0932,1.0933,0,1.1029,1.1002,1.097,1.0965,1.096,1.0945,1.0942,1.0936,1.0925,1.0912,1.0905,1.0889,1.088,1.0867,1.0874,1.0894,1.0835,1.0864,1.0835,1.0835,1.082,1.082,1.0734,1.0816,1.0816,1.0816,1.0817,0,1.0961,1.0931,1.0944,1.0924,1.0892,1.0905,1.0872,1.0871,1.0866,1.0846,1.0864,1.0845,1.0856,1.0838,1.0843,1.0811,1.0807,1.0807,1.0808,1.0804,1.0804,1.0796,1.08,1.0814,1.0815,1.0815,1.0815,0,1.0889,1.0897,1.0864,1.0863,1.0862,1.0838,1.0837,1.0818,1.0822,1.0797,1.0791,1.0796,1.0776,1.0782,1.076,1.0763,1.0722,1.073,1.0725,1.0726,1.0696,1.0699,1.06,1.0588,1.0679,1.0678,1.0678,0,1.0844,1.0821,1.0819,1.0808,1.0804,1.0785,1.0775,1.0787,1.0775,1.0766,1.0748,1.073,1.0715,1.0682,1.0682,1.0665,1.0671,1.0638,1.0669,1.0666,1.0669,1.067,1.0668,1.0631,1.063,1.063,1.0629,0,1.0762,1.0767,1.0752,1.0739,1.0726,1.0716,1.0707,1.0697,1.0708,1.0694,1.0674,1.0663,1.0642,1.0623,1.0608,1.0604,1.0618,1.062,1.0612,1.0607,1.0605,1.0604,1.0707,1.0621,1.0622,1.0623,1.0623,1.0623,1.0701,1.0683,1.0678,1.0661,1.0656,1.0648,1.0631,1.0633,1.0617,1.06,1.0609,1.0585,1.0579,1.056,1.0555,1.0537,1.0549,1.0538,1.0535,1.0531,1.0527,1.0609,1.0534,1.0534,1.0534,1.0535,1.0535,0,1.062,1.0618,1.0603,1.059,1.0577,1.0594,1.0585,1.0572,1.0552,1.0545,1.0531,1.0508,1.0491,1.0491,1.0474,1.046,1.0465,1.0455,1.0455,1.0454,1.0517,1.0525,1.045,1.045,1.045,1.045,1.045,1.045,1.0575,1.0545,1.055,1.0517,1.0516,1.0494,1.0488,1.048,1.0475,1.0449,1.0435,1.0436,1.0432,1.0416,1.04,1.0401,1.0393,1.0379,1.0382,1.0441,1.0449,1.0457,1.0465,1.0378,1.0378,1.032,1.0319,1.0319]}]]